Home > Weather > Cornwall > Past weeks

Flag for Canada Weather for the Past 2 Weeks in Cornwall, Ontario, Canada

Now
19 °F

Cold.


Feels Like: 10 °F
Forecast: 17 / 24 °F
Wind: 7 mph from East

Location: St Anicet

Current Time: Feb 9, 2016 at 12:06:46 PM

Latest Report: Feb 9, 2016 at 11:00 AM


Visibility: N/A

Pressure: 29.70 "Hg

Humidity: 88%

Dew point: 16 °F

Location of CornwallLocation

Historic Weather in Cornwall — Graph

°F

Cornwall Temperature Yesterday

Maximum temperature yesterday: 21 °F (at 4:00 PM)
Minimum temperature yesterday: 15 °F (at 1:00 AM)
Average temperature yesterday: 18 °F

High & Low Weather Summary for the Past Weeks

 TemperatureHumidityPressure
High52 °F (Feb 1, 4:00 AM)100% (Jan 26, 9:00 AM)30.43 "Hg (Jan 26, 9:00 AM)
Low12 °F (Jan 27, 11:00 PM)50% (Feb 2, 4:00 PM)29.38 "Hg (Feb 1, 3:00 AM)
Average29 °F79%29.93 "Hg
* Reported Jan 25 10:00 AM — Feb 9 10:00 AM, Cornwall, Weather by CustomWeather, © 2016

Note: Actual official high and low records may vary slightly from our data, if they occured in-between our weather recording intervals... More about our weather records

Advertising

Cornwall Weather History for the Previous 24 Hours

 ConditionsComfort  
Time TempWeatherWind HumidityBarometerVisibility
10:00 AM
Tue, Feb 9
18 °FCold.9 mph89%29.70 "HgN/A
9:00 AM17 °FCold.10 mph91%29.71 "HgN/A
8:00 AM17 °FCold.13 mph91%29.72 "HgN/A
7:00 AM17 °FCold.9 mph92%29.73 "HgN/A
6:00 AM17 °FCold.10 mph92%29.74 "HgN/A
5:00 AM17 °FCold.8 mph92%29.74 "HgN/A
4:00 AM17 °FCold.8 mph93%29.76 "HgN/A
3:00 AM17 °FCold.8 mph93%29.78 "HgN/A
2:00 AM17 °FCold.7 mph92%29.80 "HgN/A
1:00 AM17 °FCold.9 mph90%29.82 "HgN/A
12:00 AM17 °FCold.10 mph90%29.83 "HgN/A
11:00 PM
Mon, Feb 8
17 °FCold.9 mph88%29.85 "HgN/A
10:00 PM19 °FCold.10 mph71%29.86 "HgN/A
9:00 PM20 °FCold.12 mph62%29.87 "HgN/A
8:00 PM20 °FCold.12 mph61%29.87 "HgN/A
7:00 PM20 °FCold.14 mph61%29.88 "HgN/A
6:00 PM20 °FCold.12 mph58%29.88 "HgN/A
5:00 PM21 °FCold.14 mph56%29.88 "HgN/A
4:00 PM21 °FCold.10 mph57%29.88 "HgN/A
3:00 PM20 °FCold.14 mph55%29.90 "HgN/A
2:00 PM19 °FCold.15 mph61%29.90 "HgN/A
1:00 PM20 °FCold.13 mph51%29.92 "HgN/A
12:00 PM19 °FCold.14 mph54%29.95 "HgN/A
Weather by CustomWeather, © 2016

See weather overviewHow to use our weather pages